SCP
-0 0 0 0 0 0 0 0 0 0 0 0 0 0 0 0 0 0 0 0 0 0
0 0 0 0 0 0 0 0 0 0 0 0 0 0 0 0 0 0 0 0 0 0
0 0 0 0 0 0 0 0 0 0 0 0 0 0 0 0 0 0 0 0 0 0
0 0 0 0 0 0 0 0 0 0 0 0 0 0 0 0 0 0 0 0 0 0
0 0 0 0 0 0 0 0 0 0 0 0 0 0 0 0 0 0 0 0 0 0
0 0 0 0 0 0 0 0 0 0 0 0 0 0 0 0 0 0 0 0 0 0
0 0 0 0 0 0 0 0 0 0 0 0 0 0 0 0 0 0 0 0 0 0
0 0 0 0 0 0 0 0 0 0 0 0 0 0 0 0 0 0 0 0 0 0
0 0 0 0 0 0 0 0 0 0 0 0 0 0 0 0 0 0 0 0 0 0
0 0 0 0 0 0 0 0 0 0 0 0 0 0 0 0 0 0 0 0 0 0
0 0 0 0 0 0 0 0 0 0 0 0 0 0 0 0 0 0 0 0 0 0
0 0 0 0 0 0 0 0 0 0 0 0 0 0 0 0 0 0 0 0 0 0
0 0 0 0 0 0 0 0 0 0 0 0 0 0 0 0 0 0 0 0 0 0
0 0 0 0 0 0 0 0 0 0 0 0 0 0 0 0 0 0 0 0 0 0
Wind_Speed_500mb
74 75 77 77 75 77 77 75 71 74 79 82 78 70 65 64 60 57 55 53 52 50
81 81 82 81 77 75 75 77 74 73 76 78 78 74 68 65 61 56 54 52 49 48
88 86 84 79 79 77 71 73 69 72 72 74 75 72 66 62 57 55 50 47 45 43
87 87 83 80 76 73 70 65 72 67 67 69 66 62 58 54 48 45 42 39 40 39
90 87 83 76 69 68 69 61 65 69 54 63 62 57 53 47 40 38 35 34 36 38
87 86 78 77 71 61 62 55 62 71 59 51 53 53 47 40 35 33 34 37 41 42
84 85 82 76 71 65 53 52 59 64 60 50 42 45 43 45 39 34 38 46 45 39
81 81 83 80 76 70 53 50 48 52 57 47 48 57 44 35 26 43 47 44 40 39
81 81 81 79 77 69 61 51 51 53 52 62 63 48 47 37 35 43 48 47 43 41
83 85 79 78 76 69 64 63 61 57 50 56 55 56 53 38 43 55 52 48 46 41
83 83 80 76 71 65 61 60 64 56 46 50 57 52 26 42 53 52 50 48 43 41
81 83 80 76 73 69 64 62 57 52 48 46 35 28 42 37 41 45 47 43 42 40
79 79 78 75 71 66 61 55 50 43 31 22 31 26 28 31 35 39 42 42 40 36
80 77 74 74 71 67 60 55 48 40 31 30 29 28 26 25 26 32 36 38 37 35
Wind_Direction_500mb
327 323 317 312 307 301 298 292 288 280 277 279 279 274 266 260 257 254 252 251 251 251
319 318 320 316 310 305 304 301 295 289 280 274 273 271 265 259 256 254 252 252 252 253
319 319 315 315 314 307 305 306 302 296 287 276 271 267 262 258 256 255 253 254 255 256
329 326 322 317 315 314 303 302 301 294 290 278 274 269 264 262 260 258 258 257 260 260
334 329 330 322 318 316 306 302 300 295 281 282 275 266 260 261 263 266 268 269 269 271
333 332 330 327 324 321 309 300 292 297 285 268 274 268 259 253 250 254 264 275 277 277
332 332 331 327 324 327 315 299 286 291 278 269 266 260 255 256 256 266 268 266 264 266
332 333 333 329 326 320 322 319 310 306 279 259 251 253 262 263 265 267 265 263 263 264
336 335 335 333 330 323 321 317 317 308 287 263 247 267 256 259 265 272 271 267 267 268
337 336 335 336 333 328 323 318 315 309 298 274 261 257 274 267 266 267 270 268 269 270
336 336 336 336 336 332 328 320 314 309 301 281 269 272 255 271 267 267 268 271 271 273
334 335 335 337 339 337 336 328 322 314 307 294 284 271 273 269 264 266 269 271 271 271
330 331 333 335 336 337 336 328 328 322 313 309 292 285 272 266 266 273 277 276 277 281
326 327 328 331 335 334 332 329 323 321 318 307 296 288 284 276 281 288 287 285 284 280
Wind_Speed_850mb
74 75 77 77 75 77 77 75 71 74 79 82 78 70 65 64 60 57 55 53 52 50
81 81 82 81 77 75 75 77 74 73 76 78 78 74 68 65 61 56 54 52 49 48
88 86 84 79 79 77 71 73 69 72 72 74 75 72 66 62 57 55 50 47 45 43
87 87 83 80 76 73 70 65 72 67 67 69 66 62 58 54 48 45 42 39 40 39
90 87 83 76 69 68 69 61 65 69 54 63 62 57 53 47 40 38 35 34 36 38
87 86 78 77 71 61 62 55 62 71 59 51 53 53 47 40 35 33 34 37 41 42
84 85 82 76 71 65 53 52 59 64 60 50 42 45 43 45 39 34 38 46 45 39
81 81 83 80 76 70 53 50 48 52 57 47 48 57 44 35 26 43 47 44 40 39
81 81 81 79 77 69 61 51 51 53 52 62 63 48 47 37 35 43 48 47 43 41
83 85 79 78 76 69 64 63 61 57 50 56 55 56 53 38 43 55 52 48 46 41
83 83 80 76 71 65 61 60 64 56 46 50 57 52 26 42 53 52 50 48 43 41
81 83 80 76 73 69 64 62 57 52 48 46 35 28 42 37 41 45 47 43 42 40
79 79 78 75 71 66 61 55 50 43 31 22 31 26 28 31 35 39 42 42 40 36
80 77 74 74 71 67 60 55 48 40 31 30 29 28 26 25 26 32 36 38 37 35
Wind_Direction_850mb
327 323 317 312 307 301 298 292 288 280 277 279 279 274 266 260 257 254 252 251 251 251
319 318 320 316 310 305 304 301 295 289 280 274 273 271 265 259 256 254 252 252 252 253
319 319 315 315 314 307 305 306 302 296 287 276 271 267 262 258 256 255 253 254 255 256
329 326 322 317 315 314 303 302 301 294 290 278 274 269 264 262 260 258 258 257 260 260
334 329 330 322 318 316 306 302 300 295 281 282 275 266 260 261 263 266 268 269 269 271
333 332 330 327 324 321 309 300 292 297 285 268 274 268 259 253 250 254 264 275 277 277
332 332 331 327 324 327 315 299 286 291 278 269 266 260 255 256 256 266 268 266 264 266
332 333 333 329 326 320 322 319 310 306 279 259 251 253 262 263 265 267 265 263 263 264
336 335 335 333 330 323 321 317 317 308 287 263 247 267 256 259 265 272 271 267 267 268
337 336 335 336 333 328 323 318 315 309 298 274 261 257 274 267 266 267 270 268 269 270
336 336 336 336 336 332 328 320 314 309 301 281 269 272 255 271 267 267 268 271 271 273
334 335 335 337 339 337 336 328 322 314 307 294 284 271 273 269 264 266 269 271 271 271
330 331 333 335 336 337 336 328 328 322 313 309 292 285 272 266 266 273 277 276 277 281
326 327 328 331 335 334 332 329 323 321 318 307 296 288 284 276 281 288 287 285 284 280